[[{"header":{"parameterUnit":"m.s-1","parameterCategory":1,"la1":30.2991,"la2":30.254,"lo1":-89.0895,"lo2":-89.0444,"dy":0.0017,"dx":0.0017,"nx":28,"ny":28,"refTime":"2023-08-16T09:00:00:Z","depth":0,"parameterNumber":2,"parameterNumberName":"U-component_of_WINDS"},"data":[0,0,0,0,0,0,0,0,0,0,0,0,0,0,0,0,0,0,0,0,0,0,0,0,0,0,0,0,0,0,0,0,0,0,0,0,0,0,0,0,0,0,0,0,0,0,0,0,0,0,0,0,0,0,0,0,0,0,-0.5062,-0.5062,0,-0.5065,-0.5065,-0.5065,-0.5005,-0.5004,-0.5002,-0.5001,-0.5005,-0.5007,-0.5009,0,0,0,0,0,0,0,0,0,0,0,0,0,-0.5006,-0.5008,-0.5062,-0.5062,-0.5062,-0.5065,-0.5065,-0.5065,-0.5006,-0.5004,-0.5002,-0.5,-0.5005,-0.5007,-0.5009,0,0,0,0,0,0,0,0,0,0,0,0,0,-0.5022,-0.5008,-0.5062,-0.5033,-0.503,-0.5065,-0.5065,-0.5065,-0.5006,-0.5004,-0.5001,-0.4999,-0.5004,-0.5007,-0.5009,-0.5072,0,0,-0.5016,-0.5017,0,0,0,0,0,0,0,0,-0.5021,-0.5024,-0.5037,-0.5035,-0.5032,-0.5032,-0.5047,-0.5067,-0.5007,-0.5015,-0.5001,-0.4998,-0.5016,-0.5018,-0.5024,-0.5072,-0.5072,-0.5017,-0.5018,-0.5019,-0.502,0,0,0,0,0,0,0,-0.502,-0.5024,-0.5063,-0.5037,-0.5034,-0.502,-0.5019,-0.505,-0.5029,-0.5014,-0.501,-0.5011,-0.5015,-0.5021,-0.5023,-0.5072,-0.5017,-0.5019,-0.502,-0.5021,-0.5173,-0.5175,0,0,0,0,0,0,-0.5023,-0.5023,-0.5063,-0.5063,-0.5021,-0.5023,-0.5022,-0.5035,-0.5029,-0.5026,-0.5013,-0.5008,-0.5018,-0.502,-0.5023,-0.5097,-0.5019,-0.5021,-0.5023,-0.517,-0.5173,-0.5176,0,0,0,0,0,0,-0.5022,-0.5027,-0.5063,-0.5042,-0.5045,-0.5026,-0.5041,-0.5036,-0.5043,-0.5028,-0.5024,-0.5024,-0.5017,-0.502,-0.506,-0.5096,-0.5023,-0.5025,-0.5167,-0.5171,-0.5175,-0.5245,0,0,0,0,0,0,-0.5021,-0.5027,-0.5051,-0.5043,-0.5047,-0.51,-0.5043,-0.5038,-0.5047,-0.504,-0.5037,-0.5034,-0.5015,-0.5057,-0.5063,-0.5098,-0.5027,-0.5164,-0.5169,-0.5173,-0.5239,-0.525,-0.526,0,0,0,0,0,-0.5019,-0.5071,-0.5052,-0.5057,-0.5076,-0.5102,-0.5104,-0.5081,-0.505,-0.5074,-0.5064,-0.5034,-0.5091,-0.5061,-0.5067,-0.5104,-0.5162,-0.5168,-0.5173,-0.5234,-0.5248,-0.526,0,0,0,0,0,0,-0.5084,-0.5069,-0.5049,-0.5099,-0.5102,-0.5092,-0.5121,-0.5096,-0.5108,-0.5102,-0.5072,-0.5072,-0.5118,-0.5114,-0.5082,-0.5165,-0.5121,-0.5128,-0.5165,-0.5178,-0.5189,-0.5189,-0.5029,0,0,0,0,0,-0.5104,-0.5126,-0.5112,-0.5158,-0.5161,-0.5141,-0.5151,-0.5133,-0.5135,-0.5136,-0.5129,-0.5133,-0.5151,-0.5164,-0.5181,-0.5238,-0.5236,-0.5266,-0.5276,-0.5285,-0.5292,-0.5323,-0.5336,-0.5195,-0.5195,-0.5195,0,0,-0.5147,-0.5141,-0.5157,-0.5171,-0.5171,-0.5195,-0.5142,-0.517,-0.5188,-0.514,-0.5178,-0.5173,-0.5175,-0.5224,-0.5246,-0.5223,-0.5331,-0.5292,-0.53,-0.5302,-0.533,-0.5343,-0.5355,-0.5199,-0.5198,-0.5198,0,0,-0.5236,-0.5234,-0.5272,-0.5273,-0.5273,-0.5259,-0.5269,-0.5262,-0.5257,-0.5294,-0.5259,-0.5279,-0.5312,-0.5315,-0.532,-0.541,-0.5383,-0.5416,-0.5471,-0.5501,-0.5512,-0.5522,-0.5555,-0.5567,-0.5422,-0.5423,-0.5423,0,-0.5289,-0.5323,-0.5295,-0.5325,-0.5332,-0.5289,-0.5328,-0.533,-0.5337,-0.5343,-0.5317,-0.5357,-0.5355,-0.5405,-0.5426,-0.5432,-0.5442,-0.5417,-0.5513,-0.5522,-0.5531,-0.5562,-0.5574,-0.5427,-0.5426,-0.5426,-0.5425,0,-0.5388,-0.5413,-0.5443,-0.545,-0.546,-0.5495,-0.5472,-0.5486,-0.5466,-0.5455,-0.5494,-0.549,-0.5505,-0.5514,-0.5495,-0.5561,-0.5547,-0.5518,-0.5473,-0.5549,-0.5578,-0.5589,-0.5432,-0.5431,-0.543,-0.5429,0,0,-0.5521,-0.551,-0.5522,-0.5524,-0.5521,-0.5539,-0.5571,-0.5585,-0.5598,-0.5603,-0.563,-0.5658,-0.563,-0.5637,-0.5617,-0.5644,-0.5715,-0.5611,-0.561,-0.5631,-0.5789,-0.5812,-0.5826,-0.5697,-0.5699,-0.5701,-0.5789,0,-0.5609,-0.5663,-0.5638,-0.5695,-0.5717,-0.5676,-0.5704,-0.5705,-0.5695,-0.5713,-0.5702,-0.5723,-0.5684,-0.5688,-0.5711,-0.5702,-0.5747,-0.5695,-0.5723,-0.5724,-0.5725,-0.5841,-0.5866,-0.595,-0.58,-0.5802,-0.5803,0,-0.5719,-0.5728,-0.5787,-0.5779,-0.5788,-0.5813,-0.5824,-0.5841,-0.5841,-0.5832,-0.5839,-0.5813,-0.5844,-0.5799,-0.5842,-0.5807,-0.5817,-0.5814,-0.5816,-0.5819,-0.5769,-0.5849,-0.5976,-0.5989,-0.582,-0.5819,-0.5817,0,-0.5812,-0.5838,-0.5877,-0.588,-0.5871,-0.589,-0.5888,-0.5886,-0.5895,-0.5904,-0.591,-0.5923,-0.593,-0.5941,-0.592,-0.5888,-0.5966,-0.5919,-0.5961,-0.5961,-0.5981,-0.598,-0.6112,-0.5984,-0.5984,-0.5984,-0.5983,0,-0.5913,-0.5951,-0.5918,-0.5943,-0.5984,-0.5955,-0.5997,-0.5989,-0.5988,-0.601,-0.5974,-0.5996,-0.5966,-0.5985,-0.5968,-0.6007,-0.601,-0.6005,-0.6,-0.6009,-0.601,-0.6016,-0.6011,-0.5987,-0.5986,-0.5986,-0.5985,0,-0.6024,-0.6004,-0.6043,-0.6031,-0.6029,-0.6061,-0.6051,-0.6073,-0.6059,-0.6088,-0.6093,-0.6073,-0.6094,-0.6073,-0.6092,-0.6081,-0.6133,-0.6119,-0.6133,-0.613,-0.6174,-0.6171,-0.6316,-0.6334,-0.6193,-0.6194,-0.6196,0,-0.6092,-0.612,-0.6111,-0.6123,-0.6122,-0.6142,-0.6151,-0.6123,-0.6134,-0.6136,-0.6158,-0.6175,-0.6188,-0.6222,-0.621,-0.6224,-0.6212,-0.6262,-0.6214,-0.6222,-0.6214,-0.6214,-0.6217,-0.6272,-0.6274,-0.6275,-0.6276,0,-0.6214,-0.6201,-0.6216,-0.6227,-0.6239,-0.6246,-0.6251,-0.6263,-0.6234,-0.6248,-0.6268,-0.6278,-0.6297,-0.6315,-0.6325,-0.6323,-0.6296,-0.6291,-0.6302,-0.6312,-0.632,-0.6317,-0.6162,-0.6288,-0.6287,-0.6286,-0.6286,-0.6285,-0.6306,-0.6329,-0.6326,-0.6343,-0.6343,-0.6349,-0.6369,-0.6357,-0.6373,-0.6386,-0.6368,-0.6394,-0.6392,-0.6404,-0.6405,-0.6424,-0.6403,-0.6418,-0.6423,-0.6427,-0.6434,-0.6315,-0.6426,-0.6425,-0.6425,-0.6425,-0.6424,0,-0.6427,-0.6423,-0.6439,-0.6446,-0.646,-0.643,-0.6434,-0.6448,-0.647,-0.6471,-0.6483,-0.6506,-0.6523,-0.6512,-0.6526,-0.6544,-0.6532,-0.6549,-0.6548,-0.6548,-0.6452,-0.6442,-0.6559,-0.6559,-0.6559,-0.6558,-0.6558,-0.6558,-0.6492,-0.653,-0.6517,-0.6555,-0.655,-0.6574,-0.6579,-0.6583,-0.6584,-0.6611,-0.6624,-0.6616,-0.6612,-0.6626,-0.664,-0.6636,-0.6644,-0.6666,-0.6658,-0.6568,-0.6555,-0.6543,-0.6533,-0.6667,-0.6668,-0.6753,-0.6754,-0.6755]},{"header":{"parameterUnit":"m.s-1","parameterCategory":1,"la1":30.2991,"la2":30.254,"lo1":-89.0895,"lo2":-89.0444,"dy":0.0017,"dx":0.0017,"nx":28,"ny":28,"refTime":"2023-08-16T09:00:00:Z","depth":0,"parameterNumber":3,"parameterNumberName":"V-component_of_WINDS"},"data":[0,0,0,0,0,0,0,0,0,0,0,0,0,0,0,0,0,0,0,0,0,0,0,0,0,0,0,0,0,0,0,0,0,0,0,0,0,0,0,0,0,0,0,0,0,0,0,0,0,0,0,0,0,0,0,0,0,0,-0.2252,-0.2252,0,-0.2246,-0.2246,-0.2246,-0.2232,-0.2231,-0.2231,-0.2231,-0.2226,-0.2226,-0.2226,0,0,0,0,0,0,0,0,0,0,0,0,0,-0.225,-0.225,-0.2252,-0.2252,-0.2252,-0.2246,-0.2246,-0.2246,-0.2232,-0.2231,-0.2231,-0.2231,-0.2226,-0.2226,-0.2226,0,0,0,0,0,0,0,0,0,0,0,0,0,-0.2248,-0.225,-0.2252,-0.2244,-0.2243,-0.2246,-0.2246,-0.2246,-0.2232,-0.2231,-0.2231,-0.223,-0.2225,-0.2226,-0.2226,-0.2237,0,0,-0.2227,-0.2227,0,0,0,0,0,0,0,0,-0.2248,-0.2248,-0.2245,-0.2244,-0.2243,-0.2239,-0.2244,-0.2243,-0.2232,-0.2236,-0.2231,-0.223,-0.2231,-0.223,-0.223,-0.2236,-0.2236,-0.2227,-0.2227,-0.2227,-0.2227,0,0,0,0,0,0,0,-0.2249,-0.2249,-0.225,-0.2245,-0.2244,-0.2241,-0.224,-0.2244,-0.2236,-0.2236,-0.2235,-0.2234,-0.223,-0.223,-0.223,-0.2236,-0.2227,-0.2227,-0.2227,-0.2227,-0.2252,-0.2253,0,0,0,0,0,0,-0.225,-0.2249,-0.225,-0.2249,-0.2245,-0.2241,-0.224,-0.2241,-0.2236,-0.2235,-0.2235,-0.2234,-0.223,-0.223,-0.223,-0.2243,-0.2227,-0.2227,-0.2227,-0.2252,-0.2252,-0.2253,0,0,0,0,0,0,-0.225,-0.225,-0.225,-0.2249,-0.2249,-0.2242,-0.2243,-0.2241,-0.2241,-0.2235,-0.2234,-0.2236,-0.223,-0.223,-0.2235,-0.2243,-0.2227,-0.2227,-0.2251,-0.2252,-0.2252,-0.227,0,0,0,0,0,0,-0.225,-0.225,-0.2254,-0.2249,-0.2249,-0.2256,-0.2243,-0.2241,-0.2242,-0.224,-0.2236,-0.2235,-0.2229,-0.2235,-0.2236,-0.2243,-0.2228,-0.225,-0.2251,-0.2252,-0.2268,-0.2271,-0.2273,0,0,0,0,0,-0.225,-0.2259,-0.2254,-0.2254,-0.2253,-0.2256,-0.2256,-0.2249,-0.2242,-0.2247,-0.2243,-0.2235,-0.2242,-0.2236,-0.2236,-0.2244,-0.225,-0.2251,-0.2252,-0.2267,-0.227,-0.2273,0,0,0,0,0,0,-0.2265,-0.2258,-0.2253,-0.226,-0.2259,-0.2253,-0.2258,-0.2252,-0.2252,-0.2251,-0.2242,-0.2242,-0.2249,-0.2247,-0.224,-0.2254,-0.2245,-0.2246,-0.2256,-0.2259,-0.2261,-0.2262,-0.2228,0,0,0,0,0,-0.2269,-0.2272,-0.2265,-0.2273,-0.2272,-0.2265,-0.2266,-0.2261,-0.2259,-0.2258,-0.2255,-0.2253,-0.2255,-0.2257,-0.2258,-0.2267,-0.2267,-0.2273,-0.2275,-0.2277,-0.2279,-0.2285,-0.2288,-0.2257,-0.2257,-0.2257,0,0,-0.2278,-0.2274,-0.2276,-0.2276,-0.2274,-0.2277,-0.2265,-0.2269,-0.2271,-0.2259,-0.2265,-0.2262,-0.226,-0.2268,-0.2271,-0.2266,-0.2287,-0.2279,-0.228,-0.2281,-0.2287,-0.229,-0.2292,-0.2257,-0.2257,-0.2257,0,0,-0.2296,-0.2293,-0.2299,-0.2298,-0.2295,-0.2291,-0.2292,-0.2288,-0.2286,-0.2291,-0.2282,-0.2285,-0.2288,-0.2287,-0.2287,-0.2305,-0.2299,-0.2306,-0.2319,-0.2325,-0.2327,-0.2329,-0.2337,-0.234,-0.2307,-0.2307,-0.2307,0,-0.2307,-0.2311,-0.2303,-0.2308,-0.2308,-0.2297,-0.2304,-0.2303,-0.2301,-0.2302,-0.2296,-0.23,-0.2298,-0.2306,-0.2311,-0.231,-0.2313,-0.2307,-0.2327,-0.233,-0.2331,-0.2339,-0.2342,-0.2308,-0.2308,-0.2308,-0.2308,0,-0.2326,-0.2329,-0.2335,-0.2334,-0.2334,-0.234,-0.2333,-0.2335,-0.233,-0.2326,-0.2332,-0.2329,-0.233,-0.2331,-0.2326,-0.2339,-0.2336,-0.2329,-0.2319,-0.2336,-0.2342,-0.2345,-0.231,-0.2309,-0.2309,-0.2309,0,0,-0.2354,-0.2348,-0.2351,-0.235,-0.2347,-0.2349,-0.2355,-0.2356,-0.2358,-0.2357,-0.2362,-0.2365,-0.2358,-0.2358,-0.2353,-0.2358,-0.2374,-0.235,-0.235,-0.2356,-0.239,-0.2397,-0.24,-0.2369,-0.237,-0.237,-0.2391,0,-0.2372,-0.2381,-0.2374,-0.2385,-0.2388,-0.2378,-0.2382,-0.2381,-0.2378,-0.238,-0.2376,-0.2379,-0.237,-0.237,-0.2375,-0.2371,-0.2381,-0.2369,-0.2375,-0.2375,-0.2377,-0.2403,-0.241,-0.243,-0.2393,-0.2394,-0.2394,0,-0.2394,-0.2395,-0.2406,-0.2403,-0.2404,-0.2408,-0.2409,-0.2411,-0.241,-0.2407,-0.2407,-0.24,-0.2406,-0.2395,-0.2403,-0.2396,-0.2397,-0.2396,-0.2397,-0.2398,-0.2387,-0.2407,-0.2436,-0.244,-0.2398,-0.2397,-0.2397,0,-0.2415,-0.2419,-0.2426,-0.2426,-0.2422,-0.2425,-0.2424,-0.2422,-0.2423,-0.2424,-0.2425,-0.2426,-0.2427,-0.2428,-0.2422,-0.2414,-0.2431,-0.242,-0.243,-0.243,-0.2435,-0.2435,-0.2466,-0.2434,-0.2434,-0.2433,-0.2433,0,-0.2437,-0.2445,-0.2436,-0.244,-0.2449,-0.244,-0.2449,-0.2446,-0.2445,-0.2449,-0.2439,-0.2444,-0.2435,-0.2438,-0.2433,-0.2442,-0.2442,-0.244,-0.2439,-0.2442,-0.2442,-0.2444,-0.2443,-0.2434,-0.2434,-0.2434,-0.2434,0,-0.2463,-0.2457,-0.2464,-0.246,-0.2459,-0.2465,-0.2462,-0.2466,-0.2462,-0.2468,-0.2469,-0.2462,-0.2466,-0.246,-0.2462,-0.2459,-0.2471,-0.2467,-0.2472,-0.2472,-0.2483,-0.2483,-0.2517,-0.2522,-0.2485,-0.2485,-0.2486,0,-0.2478,-0.2484,-0.248,-0.2482,-0.2481,-0.2485,-0.2486,-0.2478,-0.248,-0.2479,-0.2484,-0.2487,-0.2489,-0.2496,-0.2492,-0.2494,-0.2491,-0.2503,-0.2491,-0.2494,-0.2493,-0.2494,-0.2495,-0.2506,-0.2506,-0.2507,-0.2507,0,-0.2506,-0.2503,-0.2505,-0.2507,-0.2509,-0.251,-0.251,-0.2513,-0.2504,-0.2507,-0.2511,-0.2513,-0.2516,-0.2519,-0.252,-0.2519,-0.2512,-0.251,-0.2513,-0.2517,-0.252,-0.252,-0.248,-0.251,-0.251,-0.2509,-0.2509,-0.2509,-0.2528,-0.2533,-0.2531,-0.2535,-0.2534,-0.2535,-0.2539,-0.2536,-0.2539,-0.2541,-0.2536,-0.2541,-0.254,-0.2541,-0.254,-0.2545,-0.254,-0.2543,-0.2545,-0.2546,-0.2549,-0.2518,-0.2545,-0.2545,-0.2545,-0.2545,-0.2544,0,-0.2557,-0.2555,-0.2558,-0.2559,-0.2562,-0.2555,-0.2555,-0.2558,-0.2563,-0.2562,-0.2564,-0.2569,-0.2573,-0.2569,-0.2572,-0.2576,-0.2573,-0.2577,-0.2578,-0.2578,-0.2552,-0.255,-0.258,-0.258,-0.258,-0.258,-0.258,-0.258,-0.2572,-0.2581,-0.2578,-0.2586,-0.2584,-0.259,-0.2591,-0.2592,-0.2591,-0.2597,-0.26,-0.2598,-0.2596,-0.2599,-0.2602,-0.26,-0.2603,-0.2608,-0.2606,-0.2583,-0.2579,-0.2576,-0.2575,-0.2609,-0.2609,-0.2632,-0.2632,-0.2632]}]]